Time,TemperatureF,DewpointF,PressureIn,WindDirection,WindDirectionDegrees,WindSpeedMPH,WindSpeedGustMPH,Humidity,HourlyPrecipIn,Conditions,Clouds,dailyrainin,SolarRadiationWatts/m^2,SoftwareType,DateUTC
2013-08-07 00:01:00,74.0,72.0,29.98,SW,221,0.0,-999.0,93,-99.99,,,-99.99,0.000000,,2013-08-07 04:01:00,
2013-08-07 00:21:00,74.0,72.0,29.98,SW,221,0.0,-999.0,92,-99.99,,,-99.99,0.000000,,2013-08-07 04:21:00,
2013-08-07 00:33:00,74.0,72.0,29.98,SW,221,0.0,-999.0,92,-99.99,,,-99.99,0.000000,,2013-08-07 04:33:00,
2013-08-07 00:43:00,74.0,72.0,29.98,SW,221,0.0,-999.0,92,-99.99,,,-99.99,0.000000,,2013-08-07 04:43:00,
2013-08-07 01:02:00,74.0,72.0,29.98,SW,221,0.0,-999.0,93,-99.99,,,-99.99,0.000000,,2013-08-07 05:02:00,
2013-08-07 01:32:00,73.0,71.0,29.98,SW,221,0.0,-999.0,93,-99.99,,,-99.99,0.000000,,2013-08-07 05:32:00,
2013-08-07 01:43:00,73.0,71.0,29.99,SW,221,0.0,-999.0,93,-99.99,,,-99.99,0.000000,,2013-08-07 05:43:00,
2013-08-07 01:52:00,73.0,71.0,29.98,SW,221,0.0,-999.0,93,-99.99,,,-99.99,0.000000,,2013-08-07 05:52:00,
2013-08-07 02:02:00,73.0,71.0,29.98,SW,221,0.0,-999.0,94,-99.99,,,-99.99,0.000000,,2013-08-07 06:02:00,
2013-08-07 02:11:00,73.0,71.0,29.98,SW,221,0.0,-999.0,94,-99.99,,,-99.99,0.000000,,2013-08-07 06:11:00,
2013-08-07 02:22:00,73.0,71.0,29.98,SW,221,0.0,-999.0,94,-99.99,,,-99.99,0.000000,,2013-08-07 06:22:00,
2013-08-07 02:32:00,73.0,71.0,29.98,SW,221,0.0,-999.0,94,-99.99,,,-99.99,0.000000,,2013-08-07 06:32:00,
2013-08-07 02:43:00,73.0,71.0,29.98,SW,221,0.0,-999.0,94,-99.99,,,-99.99,0.000000,,2013-08-07 06:43:00,
2013-08-07 02:52:00,73.0,71.0,29.97,SW,221,0.0,-999.0,94,-99.99,,,-99.99,0.000000,,2013-08-07 06:52:00,
2013-08-07 03:01:00,73.0,71.0,29.98,SW,221,0.0,-999.0,94,-99.99,,,-99.99,0.000000,,2013-08-07 07:01:00,
2013-08-07 03:12:00,73.0,71.0,29.98,SW,221,0.0,-999.0,94,-99.99,,,-99.99,0.000000,,2013-08-07 07:12:00,
2013-08-07 03:22:00,73.0,71.0,29.98,SW,221,0.0,-999.0,94,-99.99,,,-99.99,0.000000,,2013-08-07 07:22:00,
2013-08-07 03:33:00,73.0,71.0,29.98,SW,221,0.0,-999.0,94,-99.99,,,-99.99,0.000000,,2013-08-07 07:33:00,
2013-08-07 03:43:00,73.0,71.0,29.98,SW,221,0.0,-999.0,94,-99.99,,,-99.99,0.000000,,2013-08-07 07:43:00,
2013-08-07 03:52:00,73.0,71.0,29.98,SW,221,0.0,-999.0,94,-99.99,,,-99.99,0.000000,,2013-08-07 07:52:00,
2013-08-07 04:02:00,73.0,71.0,29.98,SW,221,0.0,-999.0,94,-99.99,,,-99.99,0.000000,,2013-08-07 08:02:00,
2013-08-07 04:11:00,73.0,71.0,29.98,SW,221,0.0,-999.0,95,-99.99,,,-99.99,0.000000,,2013-08-07 08:11:00,
2013-08-07 04:32:00,73.0,71.0,29.98,SW,221,0.0,-999.0,95,-99.99,,,-99.99,0.000000,,2013-08-07 08:32:00,
2013-08-07 04:44:00,73.0,71.0,29.98,SW,229,0.0,-999.0,95,-99.99,,,-99.99,0.000000,,2013-08-07 08:44:00,
2013-08-07 04:52:00,73.0,71.0,29.98,SW,230,0.0,-999.0,95,-99.99,,,-99.99,0.000000,,2013-08-07 08:52:00,
2013-08-07 05:02:00,73.0,71.0,29.98,SW,230,0.0,-999.0,95,-99.99,,,-99.99,0.000000,,2013-08-07 09:02:00,
2013-08-07 05:43:00,73.0,71.0,29.97,SW,230,0.0,-999.0,95,-99.99,,,-99.99,0.000000,,2013-08-07 09:43:00,
2013-08-07 06:43:00,73.0,72.0,29.98,SSE,161,1.0,-999.0,96,-99.99,,,-99.99,0.000000,,2013-08-07 10:43:00,
2013-08-07 07:32:00,73.0,72.0,29.99,SSE,163,0.0,-999.0,96,-99.99,,,-99.99,0.000000,,2013-08-07 11:32:00,
2013-08-07 07:52:00,73.0,72.0,30.00,SSE,163,0.0,-999.0,96,-99.99,,,-99.99,5.000000,,2013-08-07 11:52:00,
2013-08-07 08:02:00,73.0,72.0,30.00,SSE,163,0.0,-999.0,96,-99.99,,,-99.99,5.000000,,2013-08-07 12:02:00,
2013-08-07 08:33:00,73.0,72.0,30.01,SSE,163,0.0,-999.0,96,-99.99,,,-99.99,7.000000,,2013-08-07 12:33:00,
2013-08-07 08:43:00,73.0,72.0,30.01,SSE,163,1.0,-999.0,96,-99.99,,,-99.99,11.000000,,2013-08-07 12:43:00,
2013-08-07 08:52:00,72.0,71.0,30.01,SSE,159,2.0,-999.0,96,-99.99,,,-99.99,14.000000,,2013-08-07 12:52:00,
2013-08-07 09:11:00,72.0,71.0,30.01,SE,146,2.0,-999.0,96,-99.99,,,-99.99,21.000000,,2013-08-07 13:11:00,
2013-08-07 10:02:00,73.0,72.0,30.01,SSE,159,0.0,-999.0,96,-99.99,,,-99.99,77.000000,,2013-08-07 14:02:00,
2013-08-07 10:12:00,73.0,72.0,30.01,SSE,159,0.0,-999.0,96,-99.99,,,-99.99,86.000000,,2013-08-07 14:12:00,
2013-08-07 10:22:00,73.0,72.0,30.01,SSE,159,0.0,-999.0,96,-99.99,,,-99.99,98.000000,,2013-08-07 14:22:00,
2013-08-07 10:33:00,73.0,72.0,30.03,SSE,159,0.0,-999.0,96,-99.99,,,-99.99,51.000000,,2013-08-07 14:33:00,
2013-08-07 10:43:00,73.0,72.0,30.03,SSE,159,0.0,-999.0,96,-99.99,,,-99.99,72.000000,,2013-08-07 14:43:00,
2013-08-07 10:52:00,73.0,72.0,30.03,SSE,159,1.0,-999.0,96,-99.99,,,-99.99,107.000000,,2013-08-07 14:52:00,
2013-08-07 11:02:00,74.0,73.0,30.03,SSE,159,0.0,-999.0,96,-99.99,,,-99.99,111.000000,,2013-08-07 15:02:00,
2013-08-07 11:12:00,74.0,73.0,30.04,SSE,159,0.0,-999.0,96,-99.99,,,-99.99,16.000000,,2013-08-07 15:12:00,
2013-08-07 11:22:00,73.0,72.0,30.04,SSE,159,1.0,-999.0,96,-99.99,,,-99.99,40.000000,,2013-08-07 15:22:00,
2013-08-07 11:33:00,73.0,72.0,30.03,SSE,159,0.0,-999.0,96,-99.99,,,-99.99,46.000000,,2013-08-07 15:33:00,
2013-08-07 11:53:00,73.0,72.0,30.03,SSW,213,0.0,-999.0,96,-99.99,,,-99.99,54.000000,,2013-08-07 15:53:00,
2013-08-07 12:02:00,73.0,72.0,30.03,SSW,211,0.0,-999.0,96,-99.99,,,-99.99,104.000000,,2013-08-07 16:02:00,
2013-08-07 12:33:00,74.0,73.0,30.02,SSW,210,1.0,-999.0,96,-99.99,,,-99.99,329.000000,,2013-08-07 16:33:00,
2013-08-07 12:43:00,74.0,73.0,30.02,SSW,205,1.0,-999.0,96,-99.99,,,-99.99,323.000000,,2013-08-07 16:43:00,
2013-08-07 12:53:00,75.0,74.0,30.01,South,183,3.0,-999.0,96,-99.99,,,-99.99,329.000000,,2013-08-07 16:53:00,
2013-08-07 13:33:00,78.0,76.0,30.00,SSW,200,2.0,-999.0,94,-99.99,,,-99.99,204.000000,,2013-08-07 17:33:00,
2013-08-07 13:43:00,79.0,76.0,30.00,SW,223,1.0,-999.0,92,-99.99,,,-99.99,134.000000,,2013-08-07 17:43:00,
2013-08-07 13:52:00,79.0,76.0,30.01,WSW,242,1.0,-999.0,91,-99.99,,,-99.99,223.000000,,2013-08-07 17:52:00,
2013-08-07 14:02:00,79.0,76.0,30.01,SW,236,1.0,-999.0,91,-99.99,,,-99.99,410.000000,,2013-08-07 18:02:00,
2013-08-07 14:11:00,80.0,77.0,30.00,SW,230,1.0,-999.0,90,-99.99,,,-99.99,410.000000,,2013-08-07 18:11:00,
2013-08-07 14:52:00,82.0,76.0,29.98,South,190,4.0,-999.0,83,-99.99,,,-99.99,752.000000,,2013-08-07 18:52:00,
2013-08-07 15:01:00,83.0,76.0,29.98,South,180,4.0,-999.0,80,-99.99,,,-99.99,610.000000,,2013-08-07 19:01:00,
2013-08-07 15:11:00,84.0,76.0,29.98,South,183,4.0,-999.0,78,-99.99,,,-99.99,482.000000,,2013-08-07 19:11:00,
2013-08-07 15:32:00,84.0,76.0,29.98,SSW,213,4.0,-999.0,76,-99.99,,,-99.99,227.000000,,2013-08-07 19:32:00,
2013-08-07 15:52:00,84.0,76.0,29.98,SSW,200,1.0,-999.0,76,-99.99,,,-99.99,255.000000,,2013-08-07 19:52:00,
2013-08-07 16:02:00,84.0,75.0,29.97,SSW,193,2.0,-999.0,75,-99.99,,,-99.99,237.000000,,2013-08-07 20:02:00,
2013-08-07 16:11:00,84.0,76.0,29.97,SSW,201,3.0,-999.0,76,-99.99,,,-99.99,230.000000,,2013-08-07 20:11:00,
2013-08-07 16:43:00,83.0,76.0,29.96,SSW,210,2.0,-999.0,79,-99.99,,,-99.99,192.000000,,2013-08-07 20:43:00,
2013-08-07 16:52:00,83.0,76.0,29.96,SW,226,1.0,-999.0,80,-99.99,,,-99.99,185.000000,,2013-08-07 20:52:00,
2013-08-07 17:43:00,82.0,76.0,29.96,SW,223,1.0,-999.0,82,-99.99,,,-99.99,141.000000,,2013-08-07 21:43:00,
2013-08-07 17:52:00,82.0,76.0,29.96,SW,214,0.0,-999.0,83,-99.99,,,-99.99,130.000000,,2013-08-07 21:52:00,
2013-08-07 18:01:00,82.0,76.0,29.96,SSW,200,3.0,-999.0,83,-99.99,,,-99.99,116.000000,,2013-08-07 22:01:00,
2013-08-07 18:12:00,82.0,76.0,29.96,SSW,211,2.0,-999.0,82,-99.99,,,-99.99,109.000000,,2013-08-07 22:12:00,
2013-08-07 18:22:00,82.0,76.0,29.96,SSW,212,0.0,-999.0,83,-99.99,,,-99.99,98.000000,,2013-08-07 22:22:00,
2013-08-07 18:52:00,81.0,76.0,29.96,SW,215,1.0,-999.0,84,-99.99,,,-99.99,65.000000,,2013-08-07 22:52:00,
2013-08-07 19:11:00,81.0,76.0,29.95,SSW,204,1.0,-999.0,84,-99.99,,,-99.99,56.000000,,2013-08-07 23:11:00,
2013-08-07 19:22:00,81.0,76.0,29.94,SSW,204,0.0,-999.0,85,-99.99,,,-99.99,42.000000,,2013-08-07 23:22:00,
2013-08-07 19:32:00,81.0,76.0,29.95,SSW,204,0.0,-999.0,85,-99.99,,,-99.99,37.000000,,2013-08-07 23:32:00,
2013-08-07 19:43:00,81.0,76.0,29.94,SSW,204,0.0,-999.0,86,-99.99,,,-99.99,26.000000,,2013-08-07 23:43:00,
2013-08-07 19:52:00,80.0,75.0,29.94,SSW,204,1.0,-999.0,86,-99.99,,,-99.99,26.000000,,2013-08-07 23:52:00,
2013-08-07 20:01:00,80.0,76.0,29.94,SSW,204,0.0,-999.0,87,-99.99,,,-99.99,23.000000,,2013-08-08 00:01:00,
2013-08-07 20:11:00,80.0,76.0,29.93,SSW,204,0.0,-999.0,87,-99.99,,,-99.99,16.000000,,2013-08-08 00:11:00,
2013-08-07 20:22:00,80.0,76.0,29.94,SSW,204,0.0,-999.0,87,-99.99,,,-99.99,11.000000,,2013-08-08 00:22:00,
2013-08-07 20:32:00,79.0,75.0,29.94,SSW,204,0.0,-999.0,88,-99.99,,,-99.99,7.000000,,2013-08-08 00:32:00,
2013-08-07 20:42:00,79.0,75.0,29.94,SSW,205,0.0,-999.0,88,-99.99,,,-99.99,0.000000,,2013-08-08 00:42:00,
2013-08-07 20:52:00,79.0,75.0,29.95,SSW,212,1.0,-999.0,88,-99.99,,,-99.99,0.000000,,2013-08-08 00:52:00,
2013-08-07 21:02:00,79.0,75.0,29.95,SW,232,0.0,-999.0,87,-99.99,,,-99.99,0.000000,,2013-08-08 01:02:00,
2013-08-07 21:11:00,78.0,73.0,29.95,WSW,256,1.0,-999.0,85,-99.99,,,-99.99,0.000000,,2013-08-08 01:11:00,
2013-08-07 21:32:00,77.0,72.0,29.96,WSW,247,1.0,-999.0,84,-99.99,,,-99.99,0.000000,,2013-08-08 01:32:00,
2013-08-07 21:43:00,77.0,72.0,29.97,SW,234,1.0,-999.0,84,-99.99,,,-99.99,0.000000,,2013-08-08 01:43:00,
2013-08-07 22:02:00,75.0,71.0,29.99,West,267,1.0,-999.0,86,-99.99,,,-99.99,0.000000,,2013-08-08 02:02:00,
2013-08-07 22:52:00,74.0,71.0,30.00,SW,236,1.0,-999.0,89,-99.99,,,-99.99,0.000000,,2013-08-08 02:52:00,